Starlink 32267

operational
NORAD ID: 60363 Int'l Des: 2024-138 Owner: SPXS Country: US Constellation: starlink
LEOCIRCULAR

Starlink 32267について

説明を読み込み中...

リアルタイム位置

3D地球を読み込み中...

次回通過

高度履歴

Altitude vs Time

uPlot chart will show altitude changes over time

軌道要素

1 60363U 24138J 25260.66369450 .00000435 00000-0 26794-4 0 9994
2 60363 53.1616 33.4995 0001093 99.7015 260.4109 15.30201096 64132
Epoch: Sep 17, 2025 • Age: 25 hours

現在のステータス

高度 493.3 km
速度 7.62 km/s
衛星直下点 -50.20°S, 77.08°E
打ち上げ日 Aug 4, 2024
運用期間 1.1 years
タイプ internet

技術仕様

分類 Payload
質量 730.00 kg
乾燥質量 700.00 kg
総質量 730.00 kg
長さ 0.30 m
直径 4.10 m
スパン 29.00 m
形状 Box + pan
製造者 SPXS
バスタイプ Starlink V2M
フェーズステータス In Orbit
所有者/国 SPXS/US

大規模コンステレーション

Loading constellations...